Wind_Speed
9 10 12 12 15 13 11 13 12 11 11 9 11 12 11 9 8 7 5 4 4 7 7 5 2 2 7 12 13 14 13 13 15 16 16 15 14 13 13 13 13 15 17
10 11 10 11 12 12 12 13 12 10 10 9 7 6 8 7 6 7 5 5 7 10 6 6 5 7 11 14 13 12 13 10 10 11 10 11 10 10 9 9 10 10 12
14 13 13 12 11 12 12 14 14 13 11 9 8 7 8 8 7 8 7 8 8 8 6 8 8 12 13 13 13 11 10 7 9 8 8 7 7 8 9 9 8 7 10
16 17 17 18 17 18 15 15 13 12 11 10 11 11 8 7 8 8 8 8 7 7 8 8 12 15 12 13 11 10 8 6 6 7 8 8 12 13 13 14 13 8 7
14 17 20 20 21 20 18 18 16 14 13 13 12 11 11 9 9 9 8 7 8 5 7 10 16 18 15 14 12 10 8 6 8 9 9 9 10 11 11 13 18 16 11
11 16 20 22 22 22 22 20 19 17 15 15 13 13 12 11 11 10 9 9 8 6 11 17 19 18 15 13 10 9 5 8 10 8 9 8 7 8 11 13 15 17 16
10 11 15 21 24 24 24 24 22 20 18 16 15 14 13 12 12 12 9 11 12 11 12 17 18 15 13 12 9 9 5 4 5 6 3 6 9 12 13 14 14 14 15
10 11 17 20 23 26 27 26 26 24 20 18 18 16 13 13 13 12 13 15 13 12 12 14 13 13 11 10 9 8 6 6 5 2 3 6 7 7 9 8 10 11 12
16 14 18 20 21 24 25 27 28 26 23 21 19 16 14 15 15 16 18 17 14 12 13 12 11 10 9 9 9 9 7 4 2 1 1 3 6 6 5 6 7 10 10
13 16 20 22 21 24 26 27 28 26 24 21 18 17 17 17 16 19 18 16 14 12 12 11 11 10 10 7 8 7 7 4 1 2 2 4 8 9 7 8 8 10 13
14 19 17 21 21 20 22 27 27 25 20 17 17 17 18 18 20 21 17 15 14 13 12 12 12 9 8 9 9 8 8 5 5 5 6 6 6 10 9 10 12 14 14
23 21 20 19 21 20 19 21 25 24 22 21 20 20 21 21 23 20 18 16 15 13 13 13 12 10 8 8 7 7 8 9 8 10 12 12 10 8 8 10 11 12 15
17 16 14 19 23 20 20 21 24 24 25 23 22 24 22 22 23 20 18 17 15 14 14 13 13 13 9 6 4 2 2 4 5 5 9 10 11 13 15 16 16 16 18
22 17 21 29 24 23 19 18 20 24 23 20 20 23 23 24 23 21 20 18 17 15 15 16 15 16 12 8 7 6 5 6 8 11 13 15 14 16 19 23 28 25 22
24 24 20 33 28 21 18 15 13 15 19 22 23 23 26 25 22 20 20 19 17 17 17 18 18 17 16 13 14 14 13 11 12 13 15 17 19 22 25 30 36 40 37
26 25 27 33 34 29 21 18 15 17 15 15 21 24 23 22 21 20 20 18 17 18 18 19 20 21 20 20 21 20 19 18 17 19 22 24 27 30 33 37 42 45 50
31 27 26 29 34 35 31 23 23 22 20 20 21 21 22 22 23 23 21 20 20 20 18 20 22 23 23 25 26 24 23 23 23 24 26 28 31 36 40 45 49 54 54
37 36 37 29 28 41 36 33 31 27 26 23 22 22 21 21 21 21 20 21 21 21 22 22 22 24 25 27 28 31 32 31 30 28 29 30 34 40 47 51 57 63 74
46 45 42 39 37 24 23 43 38 34 36 30 30 27 25 22 18 16 17 18 20 21 21 23 24 24 26 29 30 33 34 37 35 35 35 37 39 44 51 56 59 57 46
46 45 42 42 38 36 30 31 41 43 41 37 36 32 31 28 27 25 24 22 22 21 23 24 25 25 27 32 34 36 40 41 41 40 38 40 45 50 54 58 67 56 55
52 47 45 46 45 44 39 31 36 48 45 39 45 44 37 35 33 32 30 30 29 27 26 24 25 26 27 30 32 37 42 43 44 44 44 46 50 53 58 54 59 60 62
55 57 51 47 44 42 41 37 38 38 47 47 39 51 26 42 39 37 34 34 34 32 31 30 30 30 31 32 35 38 41 44 47 48 49 53 55 58 58 57 60 63 68
51 56 60 58 52 49 45 44 43 41 40 39 46 48 55 46 41 43 41 41 43 42 39 37 37 36 37 38 42 44 45 48 50 51 54 56 61 63 61 62 65 68 69
49 50 52 54 54 52 55 51 49 50 46 47 47 44 45 53 55 45 43 44 44 44 43 43 42 40 40 43 47 46 51 54 55 57 59 62 66 63 63 65 65 68 70
52 49 47 45 42 40 46 53 56 54 46 45 47 50 52 52 47 44 42 47 50 48 47 46 47 45 45 48 50 53 54 55 56 57 58 59 61 63 65 65 69 71 73
49 50 50 45 44 43 44 45 48 50 53 57 54 51 50 49 48 53 56 56 57 58 56 53 55 57 59 61 61 60 58 59 61 61 61 64 64 68 69 71 70 73 75
Wind_Direction
198 206 204 195 204 207 201 202 198 196 198 199 196 200 211 222 229 225 263 293 305 299 294 268 241 161 165 142 125 118 103 95 93 89 86 82 76 71 67 63 55 51 50
203 223 216 197 200 217 216 212 217 218 222 220 204 197 205 212 221 241 253 264 267 271 262 250 213 167 161 142 131 126 112 107 99 90 84 75 62 48 38 29 26 34 46
197 218 226 222 219 214 219 226 220 223 218 211 219 225 224 222 226 244 251 263 257 252 255 243 200 168 161 141 136 133 117 113 99 89 63 59 47 28 18 4 346 4 32
202 211 219 226 214 213 214 220 222 223 218 210 221 228 236 246 238 247 253 252 246 247 246 218 185 164 161 148 143 142 131 118 90 71 45 51 61 58 42 32 28 15 16
222 212 218 219 228 219 214 212 208 209 216 223 224 227 231 237 246 240 232 224 236 228 208 185 177 171 168 167 163 159 144 120 102 94 74 77 58 43 34 25 33 44 46
237 231 226 225 227 231 225 219 213 210 210 220 218 224 231 242 246 235 218 221 201 182 164 168 180 177 175 173 179 167 149 138 112 93 93 78 67 58 60 47 37 34 33
265 258 249 238 231 232 233 233 227 216 214 217 228 228 233 240 233 220 211 203 180 175 173 174 178 180 177 176 186 188 197 172 102 109 77 77 82 75 68 56 49 42 38
273 286 264 243 242 237 233 229 231 232 222 223 228 236 240 232 221 217 198 188 184 174 190 187 183 187 186 183 183 188 195 182 139 68 4 48 66 87 77 55 42 36 34
237 251 269 259 253 250 247 238 227 225 223 224 227 228 227 221 213 201 188 184 187 188 193 195 186 193 175 172 182 185 197 194 139 261 303 21 36 52 34 21 14 10 7
261 245 254 266 260 254 241 238 235 227 218 216 215 213 214 216 210 193 189 189 190 189 196 191 183 177 172 177 200 201 201 212 244 281 288 340 349 349 350 355 357 353 346
249 220 248 262 267 255 235 227 227 221 213 212 214 208 208 210 202 190 188 191 189 191 185 184 175 186 188 195 193 188 192 207 229 245 262 280 313 341 334 334 336 343 339
274 256 240 256 262 244 234 222 220 216 203 206 207 204 204 202 199 189 189 188 190 189 181 180 183 197 194 189 195 191 194 213 240 271 287 285 285 326 314 312 313 307 308
284 242 247 246 246 240 225 223 217 209 206 200 196 199 200 198 195 193 192 189 186 187 187 184 186 179 173 186 203 213 230 237 263 303 329 324 276 279 300 296 305 293 293
283 285 237 236 240 238 229 230 224 213 198 193 190 189 188 193 195 197 193 191 193 192 193 197 197 194 201 226 226 235 270 274 282 300 310 310 308 301 303 300 301 299 291
283 277 246 223 223 234 224 234 230 220 198 184 181 187 190 187 198 199 199 197 195 199 203 202 214 219 233 232 232 255 264 260 270 286 293 296 297 294 306 310 312 299 301
266 270 252 216 215 224 208 217 219 209 195 196 197 188 187 187 188 199 203 204 206 210 213 215 221 231 237 242 247 252 257 262 273 280 287 295 300 308 309 307 304 304 301
248 249 242 231 221 221 208 220 213 210 201 197 203 195 194 195 194 201 206 207 211 218 223 232 235 242 242 244 251 256 258 265 271 281 287 291 299 302 302 302 297 291 290
225 237 238 240 230 225 220 214 221 216 218 206 205 206 206 205 206 207 215 220 224 227 232 239 244 246 252 253 253 258 261 267 270 282 284 296 300 302 298 297 293 299 296
224 226 235 242 244 236 241 219 221 221 233 220 216 209 212 216 219 217 225 233 237 239 242 244 249 253 257 262 264 264 265 272 276 285 289 293 297 295 292 298 303 292 291
223 230 227 239 239 249 248 241 239 212 230 228 236 226 219 220 222 226 229 229 234 240 245 251 258 261 261 262 264 266 265 266 269 275 282 288 291 294 296 304 303 301 310
227 221 224 229 237 246 246 236 238 243 220 224 224 230 225 231 238 233 233 238 240 242 248 252 259 266 273 276 277 273 272 272 272 279 284 286 288 292 297 302 304 304 307
226 229 224 228 236 237 235 234 234 235 241 224 239 241 238 231 235 240 241 245 247 249 251 252 257 265 269 271 273 275 276 273 275 281 284 286 291 294 295 299 301 302 309
229 230 232 231 231 239 237 239 237 238 235 238 233 235 228 234 235 239 242 245 248 251 253 256 260 264 268 273 271 271 271 274 276 278 282 286 286 288 290 294 297 301 305
237 230 232 233 231 233 238 238 241 243 242 250 251 256 248 234 231 229 236 241 242 245 252 252 256 260 267 269 269 269 270 271 272 273 274 279 283 286 287 292 296 299 301
239 236 235 233 234 233 232 241 244 246 247 244 249 255 261 260 258 257 250 255 255 257 250 255 258 258 262 268 273 274 270 270 271 272 276 279 282 284 286 289 293 294 296
235 236 234 231 230 231 232 231 236 242 248 253 253 252 256 257 259 266 268 267 265 260 262 265 264 266 271 273 274 271 272 271 272 274 277 280 282 284 286 289 292 293 296
Height
5889 5889 5891 5892 5895 5897 5898 5899 5900 5902 5903 5903 5906 5907 5909 5911 5914 5916 5916 5916 5916 5917 5918 5919 5919 5919 5919 5919 5920 5920 5919 5918 5917 5915 5915 5914 5913 5911 5910 5908 5905 5904 5903
5887 5889 5890 5891 5893 5894 5896 5899 5900 5901 5902 5902 5904 5907 5910 5911 5912 5914 5914 5916 5916 5916 5918 5918 5919 5918 5919 5919 5920 5921 5920 5920 5918 5917 5916 5915 5915 5912 5910 5908 5906 5904 5904
5885 5887 5889 5889 5891 5893 5894 5896 5898 5899 5901 5902 5903 5906 5908 5910 5911 5912 5913 5914 5915 5916 5916 5917 5917 5917 5918 5919 5921 5921 5921 5920 5920 5919 5919 5916 5913 5912 5910 5909 5908 5907 5907
5883 5884 5887 5888 5890 5892 5893 5894 5896 5898 5900 5901 5903 5904 5906 5909 5911 5911 5912 5913 5913 5913 5914 5915 5916 5917 5918 5919 5921 5920 5920 5921 5921 5920 5918 5917 5915 5913 5911 5909 5906 5906 5907
5881 5883 5885 5886 5888 5890 5892 5893 5895 5896 5898 5900 5902 5904 5905 5907 5909 5909 5910 5911 5912 5912 5913 5913 5915 5916 5917 5918 5920 5920 5921 5921 5921 5921 5920 5919 5918 5916 5915 5912 5910 5908 5906
5881 5881 5883 5884 5885 5888 5890 5892 5893 5894 5896 5898 5901 5903 5905 5905 5906 5907 5907 5909 5910 5910 5912 5914 5915 5916 5917 5920 5921 5921 5922 5922 5922 5922 5922 5922 5921 5919 5917 5915 5913 5912 5911
5881 5881 5883 5883 5884 5885 5887 5889 5891 5892 5894 5895 5898 5899 5901 5902 5903 5904 5905 5907 5908 5909 5912 5913 5915 5916 5918 5920 5921 5922 5923 5923 5923 5923 5924 5923 5922 5921 5919 5918 5917 5916 5915
5882 5882 5880 5880 5881 5882 5883 5885 5887 5888 5889 5892 5894 5895 5897 5899 5900 5902 5903 5905 5907 5908 5912 5913 5916 5916 5918 5920 5921 5922 5922 5923 5924 5923 5923 5924 5924 5922 5922 5921 5920 5919 5918
5880 5880 5878 5878 5879 5879 5881 5882 5882 5882 5884 5886 5889 5892 5893 5896 5898 5899 5901 5903 5905 5907 5910 5913 5914 5916 5918 5919 5920 5921 5921 5922 5924 5924 5925 5926 5926 5925 5924 5923 5921 5920 5919
5876 5876 5875 5874 5874 5873 5875 5877 5879 5879 5878 5880 5883 5886 5889 5892 5895 5897 5900 5902 5904 5905 5908 5912 5913 5915 5917 5919 5919 5920 5921 5922 5924 5925 5926 5926 5924 5922 5922 5922 5921 5921 5919
5874 5873 5872 5870 5870 5870 5870 5871 5873 5874 5875 5877 5880 5882 5886 5889 5892 5895 5897 5900 5902 5904 5906 5910 5912 5914 5917 5918 5919 5919 5920 5921 5922 5924 5924 5924 5923 5922 5921 5920 5919 5918 5917
5869 5869 5869 5867 5868 5867 5869 5869 5869 5870 5868 5871 5875 5879 5882 5886 5890 5892 5895 5898 5900 5902 5905 5908 5910 5913 5915 5917 5918 5918 5919 5920 5920 5921 5922 5921 5921 5920 5920 5918 5917 5917 5914
5864 5865 5864 5864 5864 5865 5865 5865 5866 5866 5865 5866 5868 5875 5878 5883 5887 5890 5892 5895 5898 5901 5903 5905 5908 5911 5913 5915 5917 5918 5918 5919 5919 5918 5918 5917 5917 5917 5917 5916 5914 5912 5909
5857 5859 5860 5860 5861 5862 5863 5864 5865 5864 5864 5865 5868 5871 5874 5879 5883 5886 5889 5892 5895 5898 5901 5903 5905 5908 5911 5913 5914 5915 5915 5916 5917 5916 5915 5915 5915 5913 5911 5909 5908 5906 5905
5852 5851 5853 5855 5857 5858 5860 5863 5864 5866 5865 5865 5868 5871 5872 5872 5879 5883 5886 5889 5892 5894 5897 5900 5902 5905 5907 5909 5910 5911 5911 5913 5913 5912 5911 5911 5909 5907 5905 5903 5900 5896 5895
5847 5845 5844 5846 5850 5853 5856 5858 5862 5864 5866 5868 5870 5869 5872 5873 5875 5879 5882 5885 5888 5891 5893 5896 5897 5900 5902 5903 5904 5905 5905 5905 5906 5905 5904 5904 5902 5900 5899 5897 5892 5888 5884
5840 5840 5841 5841 5844 5849 5852 5854 5856 5860 5862 5863 5868 5868 5870 5872 5873 5876 5879 5881 5883 5885 5889 5891 5893 5895 5896 5898 5898 5898 5898 5898 5898 5898 5897 5897 5896 5892 5889 5885 5879 5873 5869
5828 5832 5835 5840 5843 5844 5847 5850 5852 5855 5857 5859 5862 5864 5866 5868 5870 5872 5875 5877 5879 5881 5884 5886 5888 5890 5892 5892 5892 5891 5890 5892 5890 5891 5889 5890 5887 5885 5879 5873 5866 5856 5836
5812 5818 5825 5830 5834 5837 5839 5839 5845 5849 5851 5853 5855 5857 5860 5863 5867 5869 5870 5872 5875 5876 5879 5880 5882 5885 5886 5885 5885 5884 5884 5883 5883 5882 5883 5882 5880 5877 5871 5863 5855 5850 5847
5795 5802 5811 5817 5824 5827 5832 5832 5829 5835 5842 5846 5850 5852 5855 5857 5858 5862 5864 5865 5867 5869 5870 5873 5874 5876 5878 5878 5877 5875 5874 5874 5874 5875 5875 5873 5869 5865 5860 5855 5845 5839 5842
5782 5788 5795 5803 5811 5817 5821 5824 5825 5822 5828 5831 5836 5839 5842 5847 5851 5854 5856 5858 5860 5862 5863 5865 5866 5868 5870 5870 5869 5867 5864 5864 5863 5865 5865 5863 5857 5853 5849 5847 5841 5836 5831
5769 5774 5783 5790 5795 5802 5808 5812 5816 5816 5815 5818 5824 5825 5815 5831 5838 5842 5845 5850 5851 5853 5854 5855 5858 5859 5860 5860 5860 5859 5857 5855 5854 5853 5851 5848 5845 5841 5837 5836 5833 5829 5824
5753 5760 5767 5776 5784 5789 5795 5799 5802 5804 5806 5810 5813 5815 5818 5824 5828 5833 5835 5838 5842 5844 5846 5847 5849 5850 5851 5851 5850 5849 5848 5844 5842 5841 5838 5836 5833 5831 5827 5825 5822 5817 5812
5738 5744 5752 5761 5770 5777 5780 5787 5792 5795 5797 5800 5801 5805 5807 5811 5814 5819 5823 5826 5829 5833 5835 5837 5838 5838 5840 5840 5841 5839 5837 5835 5833 5832 5829 5826 5820 5819 5816 5813 5809 5804 5799
5725 5732 5739 5747 5755 5762 5769 5773 5779 5783 5786 5788 5791 5795 5797 5802 5805 5807 5811 5816 5817 5820 5821 5822 5823 5824 5825 5826 5826 5825 5824 5822 5820 5818 5816 5812 5810 5806 5803 5801 5796 5792 5786
5710 5719 5727 5735 5743 5751 5756 5762 5767 5770 5774 5777 5781 5784 5787 5789 5792 5796 5800 5803 5804 5805 5807 5808 5809 5809 5809 5809 5810 5809 5809 5806 5804 5803 5800 5795 5796 5792 5790 5786 5782 5776 5771